(128760) = 2004 RU190

Discovered at Socorro on 2004-09-10 by LINEAR.

Orbit

Orbit type: Main Belt

Note: WebGL enabled browser required.

epoch2024-03-31.0
epoch JD2460400.5
perihelion date2023-02-18.48360
perihelion JD2459993.98360
argument of perihelion (°)150.35273
ascending node (°)304.72990
inclination (°)9.93429
eccentricity0.0824353
perihelion distance (AU)2.9465646
Tisserand w.r.t. Jupiter3.2
ΔV w.r.t. Earth (km/sec)11.1
semimajor axis (AU)3.2112880
mean anomaly (°)69.62465
mean daily motion (°/day)0.17127150
aphelion distance (AU)3.476
period (years)5.75
P-vector [x]-0.09468785
P-vector [y]0.87605231
P-vector [z]0.47282827
Q-vector [x]-0.98535859
Q-vector [y]-0.01483054
Q-vector [z]-0.16984846
absolute magnitude15.07
phase slope0.15
uncertainty0
referenceMPEC 2024-F50
observations used642
oppositions16
arc length (days)8864
first opposition used1999
last opposition used2024
residual rms (arc-secs)0.67
perturbers coarse indicatorM-v
perturbers precise indicator003Ek
first observation date used1999-12-12.0
last observation date used2024-03-19.0
computer nameMPCLINUX
JD of orbit computation2456406.173529
perihelion JD uncertainty (days)4.1892E-04
argument of perihelion uncertainty (°)8.5075E-05
ascending node uncertainty (°)2.8756E-05
inclination uncertainty (°)6.9358E-06
eccentricity uncertainty 5.5783E-08
perihelion distance uncertainty (AU)1.7769E-07
Minimum Orbit Intersection Distances (in AU)
for orbit epoch: 2460400.5, reference: E2024-G95
Mercury2.63504
Venus2.22907
Earth1.96856
Mars1.3331
Jupiter1.66353
Saturn6.11714
Uranus15.3401
Neptune26.6958

Observations

668 total observations over interval: 1999 12 12.34745 – 2024 03 19.222466
These data are available for download (format description).

Date (UT) J2000 RA J2000 Dec Magn Location Ref
1999 12 12.34745 05 57 46.23 +32 55 37.1 18.8   704 – Lincoln Laboratory ETS, New Mexico MPS 120533
1999 12 12.36725 05 57 45.12 +32 55 34.2 19.2   704 – Lincoln Laboratory ETS, New Mexico MPS 120533
1999 12 12.40258 05 57 42.84 +32 55 28.8 19.6   704 – Lincoln Laboratory ETS, New Mexico MPS 120533
2000 01 04.23775 05 36 02.84 +31 42 51.9 19.6   704 – Lincoln Laboratory ETS, New Mexico MPS 120533
2000 01 04.25236 05 36 02.15 +31 42 48.3 19.2   704 – Lincoln Laboratory ETS, New Mexico MPS 120533
2000 01 04.26701 05 36 01.41 +31 42 43.1 19.7   704 – Lincoln Laboratory ETS, New Mexico MPS 120533
2000 01 04.28166 05 36 00.66 +31 42 40.4 19.3   704 – Lincoln Laboratory ETS, New Mexico MPS 120533
2001 03 19.26875 11 21 16.08 -07 59 07.5 18.8 R 699 – Lowell Observatory-LONEOS MPS 120533
2001 03 19.30540 11 21 14.09 -07 59 00.5   699 – Lowell Observatory-LONEOS MPS 120533
2001 03 19.34215 11 21 12.44 -07 58 51.3   699 – Lowell Observatory-LONEOS MPS 120533
2001 03 19.37902 11 21 10.72 -07 58 44.6   699 – Lowell Observatory-LONEOS MPS 120533
2004 09 10.29109 01 07 45.17 +21 02 22.0 19.8   704 – Lincoln Laboratory ETS, New Mexico MPS 113231
2004 09 10.30231 01 07 44.85 +21 02 21.4 20.3   704 – Lincoln Laboratory ETS, New Mexico MPS 113231
2004 09 10.31354 01 07 44.43 +21 02 23.8 20.1   704 – Lincoln Laboratory ETS, New Mexico MPS 113231
2004 09 10.32476 01 07 43.93 +21 02 26.0 20.2   704 – Lincoln Laboratory ETS, New Mexico MPS 113231
2004 09 10.33599 01 07 43.66 +21 02 25.6 20.6   704 – Lincoln Laboratory ETS, New Mexico MPS 113231
2004 09 13.29492 01 06 06.49 +21 04 41.8 19.5   704 – Lincoln Laboratory ETS, New Mexico MPS 113231
2004 09 13.30673 01 06 06.05 +21 04 41.5 19.6   704 – Lincoln Laboratory ETS, New Mexico MPS 113231
2004 09 13.31849 01 06 05.58 +21 04 42.3 20.1   704 – Lincoln Laboratory ETS, New Mexico MPS 113231
2004 09 13.33041 01 06 05.13 +21 04 43.6 20.4   704 – Lincoln Laboratory ETS, New Mexico MPS 113231
2004 09 13.34213 01 06 04.70 +21 04 42.5 20.0   704 – Lincoln Laboratory ETS, New Mexico MPS 113231
2004 09 18.32792 01 03 00.29 +21 05 02.3 19.9   704 – Lincoln Laboratory ETS, New Mexico MPS 114527
2004 09 18.33981 01 02 59.82 +21 05 01.9 19.6   704 – Lincoln Laboratory ETS, New Mexico MPS 114527
2004 09 18.35172 01 02 59.38 +21 05 02.1 20.1   704 – Lincoln Laboratory ETS, New Mexico MPS 114528
2004 09 22.32008 01 00 16.64 +21 02 07.6   704 – Lincoln Laboratory ETS, New Mexico MPS 406729
2004 09 22.33353 01 00 15.98 +21 02 06.2   704 – Lincoln Laboratory ETS, New Mexico MPS 406729
2004 09 22.34719 01 00 15.41 +21 02 04.5   704 – Lincoln Laboratory ETS, New Mexico MPS 406729
2004 10 05.20737 00 50 23.66 +20 34 16.9 19.4   644 – Palomar Mountain/NEAT MPS 115820
2004 10 05.26867 00 50 20.64 +20 34 05.4 19.3   644 – Palomar Mountain/NEAT MPS 115820
2004 10 05.33558 00 50 17.31 +20 33 52.6 19.2   644 – Palomar Mountain/NEAT MPS 115820
2004 10 10.25102 00 46 19.94 +20 16 23.0 19.2   704 – Lincoln Laboratory ETS, New Mexico MPS 116701
2004 10 10.26204 00 46 19.38 +20 16 19.7 19.4   704 – Lincoln Laboratory ETS, New Mexico MPS 116701
2004 10 10.27305 00 46 18.78 +20 16 17.5 19.5   704 – Lincoln Laboratory ETS, New Mexico MPS 116701
2004 10 10.28408 00 46 18.22 +20 16 14.3 19.2   704 – Lincoln Laboratory ETS, New Mexico MPS 116701
2004 10 10.29514 00 46 17.69 +20 16 11.7 19.6   704 – Lincoln Laboratory ETS, New Mexico MPS 116701
2004 10 15.25192 00 42 21.93 +19 55 24.0 19.2   704 – Lincoln Laboratory ETS, New Mexico MPS 117651
2004 10 15.26288 00 42 21.38 +19 55 20.2 19.8   704 – Lincoln Laboratory ETS, New Mexico MPS 117651
2004 10 15.27382 00 42 20.80 +19 55 19.0 19.5   704 – Lincoln Laboratory ETS, New Mexico MPS 117651
2004 10 15.28477 00 42 20.33 +19 55 14.7 20.0   704 – Lincoln Laboratory ETS, New Mexico MPS 117651
2004 10 15.29573 00 42 19.75 +19 55 12.2 19.8   704 – Lincoln Laboratory ETS, New Mexico MPS 117651
2004 11 04.25462 00 29 10.94 +18 14 06.3 19.1 R 703 – Catalina Sky Survey MPS 118446
2004 11 04.26507 00 29 10.57 +18 14 03.5 19.2 R 703 – Catalina Sky Survey MPS 118446
2004 11 04.27556 00 29 10.26 +18 14 00.4 18.8 R 703 – Catalina Sky Survey MPS 118446
2004 11 04.28600 00 29 09.89 +18 13 56.6 19.0 R 703 – Catalina Sky Survey MPS 118446
2005 12 26.35184 07 50 41.62 +25 25 49.4   691 – Steward Observatory, Kitt Peak-Spacewatch MPS 156586
2005 12 26.36919 07 50 40.73 +25 25 49.1   691 – Steward Observatory, Kitt Peak-Spacewatch MPS 156586
2005 12 26.37340 07 50 40.41 +25 25 48.2 19.8 V 703 – Catalina Sky Survey MPS 156586
2005 12 26.37907 07 50 40.23 +25 25 48.6 18.8 V 703 – Catalina Sky Survey MPS 156586
2005 12 26.38654 07 50 39.84 +25 25 48.7   691 – Steward Observatory, Kitt Peak-Spacewatch MPS 156586
2005 12 26.39308 07 50 39.51 +25 25 48.1 19.1 V 703 – Catalina Sky Survey MPS 156586
2005 12 26.39875 07 50 39.30 +25 25 48.4 19.1 V 703 – Catalina Sky Survey MPS 156586
2005 12 29.32547 07 48 12.43 +25 24 40.4 19.3   704 – Lincoln Laboratory ETS, New Mexico MPS 156586
2005 12 29.33876 07 48 11.84 +25 24 40.0 19.4   704 – Lincoln Laboratory ETS, New Mexico MPS 156586
2005 12 29.35152 07 48 11.14 +25 24 39.6 19.3   704 – Lincoln Laboratory ETS, New Mexico MPS 156586
2005 12 29.36430 07 48 10.41 +25 24 39.2 19.5   704 – Lincoln Laboratory ETS, New Mexico MPS 156586
2005 12 29.37694 07 48 09.72 +25 24 38.4 19.3   704 – Lincoln Laboratory ETS, New Mexico MPS 156586
2005 12 30.28512 07 47 22.72 +25 24 14.0 19.3 V 691 – Steward Observatory, Kitt Peak-Spacewatch MPS 156586
2005 12 30.30252 07 47 21.78 +25 24 13.7 19.4 V 691 – Steward Observatory, Kitt Peak-Spacewatch MPS 156586
2005 12 30.31993 07 47 20.85 +25 24 13.1 19.4 V 691 – Steward Observatory, Kitt Peak-Spacewatch MPS 156586
2005 12 30.33379 07 47 20.11 +25 24 13.0 19.3   704 – Lincoln Laboratory ETS, New Mexico MPS 157774
2005 12 30.34700 07 47 19.37 +25 24 12.8 19.3   704 – Lincoln Laboratory ETS, New Mexico MPS 157774
2005 12 30.35624 07 47 18.60 +25 24 10.1 17.4 V G96 – Mt. Lemmon Survey MPS 157774
2005 12 30.36080 07 47 18.68 +25 24 12.2 19.8   704 – Lincoln Laboratory ETS, New Mexico MPS 157774
2005 12 30.36344 07 47 18.49 +25 24 10.1 17.5 V G96 – Mt. Lemmon Survey MPS 157774
2005 12 30.37068 07 47 18.09 +25 24 11.5 19.2 V G96 – Mt. Lemmon Survey MPS 157774
2005 12 30.37439 07 47 17.90 +25 24 12.1 19.5   704 – Lincoln Laboratory ETS, New Mexico MPS 157774
2005 12 30.37714 07 47 17.73 +25 24 11.3 19.2 V G96 – Mt. Lemmon Survey MPS 157774
2005 12 30.38787 07 47 17.16 +25 24 11.6 19.3   704 – Lincoln Laboratory ETS, New Mexico MPS 157774
2005 12 31.33044 07 46 27.48 +25 23 44.6 19.0   704 – Lincoln Laboratory ETS, New Mexico MPS 157774
2005 12 31.33058 07 46 27.55 +25 23 44.3 18.8   704 – Lincoln Laboratory ETS, New Mexico MPS 157774
2005 12 31.34449 07 46 26.74 +25 23 44.1 19.2   704 – Lincoln Laboratory ETS, New Mexico MPS 157774
2005 12 31.34462 07 46 26.80 +25 23 43.5 19.2   704 – Lincoln Laboratory ETS, New Mexico MPS 157774
2005 12 31.35814 07 46 25.98 +25 23 43.1 19.3   704 – Lincoln Laboratory ETS, New Mexico MPS 157774
2005 12 31.37120 07 46 25.33 +25 23 42.6 19.8   704 – Lincoln Laboratory ETS, New Mexico MPS 157774
2005 12 31.38482 07 46 24.52 +25 23 43.4 19.3   704 – Lincoln Laboratory ETS, New Mexico MPS 157774
2006 01 02.33591 07 44 39.34 +25 22 41.5 18.7   704 – Lincoln Laboratory ETS, New Mexico MPS 157774
2006 01 02.33623 07 44 39.49 +25 22 42.1 19.4   704 – Lincoln Laboratory ETS, New Mexico MPS 157774
2006 01 02.34913 07 44 38.71 +25 22 40.0 19.5   704 – Lincoln Laboratory ETS, New Mexico MPS 157774
2006 01 02.34945 07 44 38.72 +25 22 40.3 19.5   704 – Lincoln Laboratory ETS, New Mexico MPS 157774
2006 01 02.36238 07 44 37.89 +25 22 40.3 19.9   704 – Lincoln Laboratory ETS, New Mexico MPS 157774
2006 01 02.36269 07 44 37.93 +25 22 40.4 19.2   704 – Lincoln Laboratory ETS, New Mexico MPS 157774
2006 01 02.37567 07 44 37.21 +25 22 39.9 19.2   704 – Lincoln Laboratory ETS, New Mexico MPS 157774
2006 01 02.37598 07 44 37.17 +25 22 39.0 19.2   704 – Lincoln Laboratory ETS, New Mexico MPS 157774
2006 01 02.38899 07 44 36.44 +25 22 38.9 19.5   704 – Lincoln Laboratory ETS, New Mexico MPS 157774
